| time (UTC) | temp F | wind direction | speed MPH | gust MPH | rain 1hr in | rain 24hr in | rain mn in | humidity % | barometer mb |
| 20260509112412 | 49 | 196 | 10.0 | 15.0 | 0.00 | 0.00 | 0.00 | 62 | 999.0 |
| 20260509111909 | 49 | 159 | 8.0 | 15.0 | 0.00 | 0.00 | 0.00 | 61 | 998.8 |
| 20260509111406 | 48 | 168 | 8.0 | 17.0 | 0.00 | 0.00 | 0.00 | 61 | 999.2 |
| 20260509110904 | 48 | 188 | 7.0 | 11.0 | 0.00 | 0.00 | 0.00 | 61 | 999.7 |
| 20260509110359 | 48 | 179 | 4.0 | 11.0 | 0.00 | 0.00 | 0.00 | 61 | 999.5 |
| 20260509105858 | 48 | 198 | 10.0 | 16.0 | 0.00 | 0.00 | 0.00 | 60 | 999.7 |
| 20260509105356 | 48 | 182 | 6.0 | 11.0 | 0.00 | 0.00 | 0.00 | 59 | 999.5 |
| 20260509104852 | 48 | 185 | 3.0 | 10.0 | 0.00 | 0.00 | 0.00 | 59 | 999.3 |
| 20260509104349 | 48 | 164 | 9.0 | 11.0 | 0.00 | 0.00 | 0.00 | 58 | 999.4 |
| 20260509103847 | 48 | 206 | 10.0 | 12.0 | 0.00 | 0.00 | 0.00 | 58 | 999.7 |
| 20260509103344 | 48 | 178 | 8.0 | 11.0 | 0.00 | 0.00 | 0.00 | 57 | 999.8 |
| 20260509102843 | 49 | 162 | 5.0 | 13.0 | 0.00 | 0.00 | 0.00 | 57 | 999.8 |
| 20260509102339 | 49 | 185 | 4.0 | 15.0 | 0.00 | 0.00 | 0.00 | 56 | 999.9 |
| 20260509101835 | 49 | 200 | 11.0 | 12.0 | 0.00 | 0.00 | 0.00 | 55 | 999.9 |
| 20260509101331 | 49 | 205 | 7.0 | 14.0 | 0.00 | 0.00 | 0.00 | 55 | 1000.1 |
| 20260509100829 | 49 | 200 | 6.0 | 12.0 | 0.00 | 0.00 | 0.00 | 54 | 1000.1 |
| 20260509100326 | 49 | 190 | 5.0 | 13.0 | 0.00 | 0.00 | 0.00 | 53 | 1000.2 |
| 20260509095823 | 49 | 164 | 6.0 | 10.0 | 0.00 | 0.00 | 0.00 | 51 | 1000.5 |
| 20260509095320 | 49 | 188 | 6.0 | 14.0 | 0.00 | 0.00 | 0.00 | 50 | 1000.3 |
| 20260509094817 | 50 | 195 | 8.0 | 13.0 | 0.00 | 0.00 | 0.00 | 49 | 1000.4 |
| 20260509094314 | 49 | 181 | 10.0 | 17.0 | 0.00 | 0.00 | 0.00 | 49 | 1000.6 |
| 20260509093812 | 50 | 184 | 7.0 | 14.0 | 0.00 | 0.00 | 0.00 | 47 | 1000.5 |
| 20260509093309 | 50 | 207 | 10.0 | 18.0 | 0.00 | 0.00 | 0.00 | 46 | 1000.7 |
| 20260509092807 | 50 | 218 | 13.0 | 16.0 | 0.00 | 0.00 | 0.00 | 45 | 1000.8 |
| 20260509092306 | 50 | 192 | 11.0 | 12.0 | 0.00 | 0.00 | 0.00 | 43 | 1001.0 |
| 20260509091802 | 50 | 187 | 7.0 | 12.0 | 0.00 | 0.00 | 0.00 | 42 | 1000.8 |
| 20260509091259 | 50 | 162 | 5.0 | 12.0 | 0.00 | 0.00 | 0.00 | 41 | 1000.9 |
| 20260509090756 | 50 | 199 | 7.0 | 9.0 | 0.00 | 0.00 | 0.00 | 41 | 1001.0 |
| 20260509090253 | 50 | 207 | 10.0 | 11.0 | 0.00 | 0.00 | 0.00 | 40 | 1001.1 |
| 20260509085751 | 50 | 175 | 4.0 | 8.0 | 0.00 | 0.00 | 0.00 | 40 | 1001.0 |
| 20260509085248 | 50 | 185 | 9.0 | 11.0 | 0.00 | 0.00 | 0.00 | 40 | 1001.0 |
| 20260509084744 | 50 | 199 | 8.0 | 10.0 | 0.00 | 0.00 | 0.00 | 40 | 1001.3 |
| 20260509084241 | 50 | 208 | 9.0 | 13.0 | 0.00 | 0.00 | 0.00 | 40 | 1001.3 |
| 20260509083739 | 50 | 161 | 6.0 | 10.0 | 0.00 | 0.00 | 0.00 | 40 | 1001.2 |
| 20260509083236 | 50 | 171 | 7.0 | 12.0 | 0.00 | 0.00 | 0.00 | 41 | 1001.2 |
| 20260509082732 | 50 | 194 | 10.0 | 11.0 | 0.00 | 0.00 | 0.00 | 42 | 1001.3 |
| 20260509082229 | 50 | 155 | 9.0 | 11.0 | 0.00 | 0.00 | 0.00 | 42 | 1001.4 |
| 20260509081726 | 50 | 155 | 6.0 | 13.0 | 0.00 | 0.00 | 0.00 | 42 | 1001.3 |
| 20260509081223 | 49 | 174 | 5.0 | 12.0 | 0.00 | 0.00 | 0.00 | 43 | 1001.4 |
| 20260509080721 | 49 | 182 | 5.0 | 12.0 | 0.00 | 0.00 | 0.00 | 43 | 1001.4 |
| 20260509080219 | 50 | 197 | 5.0 | 9.0 | 0.00 | 0.00 | 0.00 | 43 | 1001.4 |
| 20260509075717 | 50 | 179 | 6.0 | 8.0 | 0.00 | 0.00 | 0.00 | 42 | 1001.5 |
| 20260509075214 | 50 | 177 | 4.0 | 13.0 | 0.00 | 0.00 | 0.00 | 42 | 1001.8 |
| 20260509074711 | 50 | 213 | 16.0 | 17.0 | 0.00 | 0.00 | 0.00 | 43 | 1001.8 |
| 20260509074208 | 49 | 166 | 8.0 | 11.0 | 0.00 | 0.00 | 0.00 | 43 | 1002.1 |
| 20260509073704 | 49 | 153 | 6.0 | 9.0 | 0.00 | 0.00 | 0.00 | 44 | 1001.8 |
| 20260509073201 | 49 | 179 | 9.0 | 12.0 | 0.00 | 0.00 | 0.00 | 43 | 1002.2 |
| 20260509072658 | 49 | 204 | 8.0 | 11.0 | 0.00 | 0.00 | 0.00 | 43 | 1002.3 |
| 20260509072155 | 49 | 187 | 6.0 | 12.0 | 0.00 | 0.00 | 0.00 | 44 | 1002.2 |
| 20260509071651 | 49 | 169 | 4.0 | 10.0 | 0.00 | 0.00 | 0.00 | 44 | 1002.3 |
| 20260509071148 | 49 | 191 | 7.0 | 11.0 | 0.00 | 0.00 | 0.00 | 44 | 1002.7 |
| 20260509070645 | 49 | 170 | 4.0 | 9.0 | 0.00 | 0.00 | 0.00 | 45 | 1002.7 |
| 20260509070141 | 49 | 156 | 7.0 | 10.0 | 0.00 | 0.00 | 0.00 | 46 | 1002.7 |
| 20260509065637 | 48 | 176 | 6.0 | 8.0 | 0.00 | 0.00 | 0.00 | 46 | 1003.0 |
| 20260509065133 | 48 | 177 | 3.0 | 10.0 | 0.00 | 0.00 | 0.00 | 47 | 1003.0 |
| 20260509064631 | 48 | 150 | 8.0 | 8.0 | 0.00 | 0.00 | 0.00 | 46 | 1002.9 |
| 20260509064129 | 48 | 145 | 4.0 | 7.0 | 0.00 | 0.00 | 0.00 | 46 | 1002.9 |
| 20260509063625 | 48 | 151 | 5.0 | 6.0 | 0.00 | 0.00 | 0.00 | 45 | 1003.2 |
| 20260509063122 | 48 | 149 | 4.0 | 6.0 | 0.00 | 0.00 | 0.00 | 45 | 1003.2 |
| 20260509062620 | 49 | 148 | 7.0 | 8.0 | 0.00 | 0.00 | 0.00 | 44 | 1003.1 |
| 20260509062116 | 49 | 154 | 6.0 | 6.0 | 0.00 | 0.00 | 0.00 | 43 | 1003.5 |
| 20260509061613 | 50 | 179 | 5.0 | 8.0 | 0.00 | 0.00 | 0.00 | 42 | 1003.4 |
| 20260509061111 | 50 | 172 | 5.0 | 7.0 | 0.00 | 0.00 | 0.00 | 42 | 1003.5 |
| 20260509060608 | 50 | 183 | 4.0 | 11.0 | 0.00 | 0.00 | 0.00 | 42 | 1003.5 |
| 20260509060103 | 50 | 140 | 4.0 | 9.0 | 0.00 | 0.00 | 0.00 | 42 | 1003.6 |
| 20260509055559 | 50 | 198 | 4.0 | 6.0 | 0.00 | 0.00 | 0.00 | 41 | 1003.7 |
| 20260509055055 | 51 | 179 | 4.0 | 8.0 | 0.00 | 0.00 | 0.00 | 41 | 1003.8 |
| 20260509054552 | 51 | 176 | 2.0 | 6.0 | 0.00 | 0.00 | 0.00 | 41 | 1004.0 |
| 20260509054050 | 51 | 177 | 3.0 | 5.0 | 0.00 | 0.00 | 0.00 | 40 | 1003.8 |
| 20260509053549 | 52 | 200 | 6.0 | 7.0 | 0.00 | 0.00 | 0.00 | 39 | 1003.9 |
| 20260509053045 | 52 | 169 | 5.0 | 9.0 | 0.00 | 0.00 | 0.00 | 39 | 1004.0 |
| 20260509052543 | 53 | 181 | 5.0 | 8.0 | 0.00 | 0.00 | 0.00 | 39 | 1004.2 |
| 20260509052041 | 53 | 183 | 6.0 | 10.0 | 0.00 | 0.00 | 0.00 | 37 | 1004.2 |
| 20260509051538 | 53 | 185 | 3.0 | 6.0 | 0.00 | 0.00 | 0.00 | 38 | 1004.1 |
| 20260509051035 | 53 | 217 | 5.0 | 5.0 | 0.00 | 0.00 | 0.00 | 40 | 1004.5 |
| 20260509050532 | 53 | 217 | 7.0 | 14.0 | 0.00 | 0.00 | 0.00 | 40 | 1004.5 |
| 20260509050028 | 52 | 220 | 8.0 | 15.0 | 0.00 | 0.00 | 0.00 | 40 | 1004.8 |
| 20260509045526 | 52 | 201 | 6.0 | 16.0 | 0.00 | 0.00 | 0.00 | 41 | 1004.8 |
| 20260509045023 | 51 | 196 | 4.0 | 12.0 | 0.00 | 0.00 | 0.00 | 43 | 1004.7 |
| 20260509044521 | 49 | 208 | 9.0 | 10.0 | 0.00 | 0.00 | 0.00 | 46 | 1004.5 |
| 20260509044018 | 48 | 180 | 3.0 | 6.0 | 0.00 | 0.00 | 0.00 | 52 | 1004.5 |
| 20260509043514 | 45 | 193 | 3.0 | 5.0 | 0.00 | 0.00 | 0.00 | 57 | 1004.6 |
| 20260509043010 | 45 | 149 | 2.0 | 3.0 | 0.00 | 0.00 | 0.00 | 65 | 1004.8 |
| 20260509042506 | 44 | 120 | 2.0 | 2.0 | 0.00 | 0.00 | 0.00 | 68 | 1004.7 |
| 20260509042002 | 45 | 121 | 2.0 | 2.0 | 0.00 | 0.00 | 0.00 | 66 | 1004.7 |
| 20260509041459 | 45 | 146 | 2.0 | 2.0 | 0.00 | 0.00 | 0.00 | 65 | 1004.7 |
| 20260509040957 | 45 | 121 | 2.0 | 2.0 | 0.00 | 0.00 | 0.00 | 65 | 1004.9 |
| 20260509040455 | 45 | 154 | 3.0 | 3.0 | 0.00 | 0.00 | 0.00 | 61 | 1005.1 |
| 20260509035951 | 46 | 131 | 3.0 | 4.0 | 0.00 | 0.00 | 0.00 | 63 | 1004.8 |
| 20260509035448 | 46 | 132 | 2.0 | 4.0 | 0.00 | 0.00 | 0.00 | 60 | 1005.1 |
| 20260509034945 | 46 | 157 | 2.0 | 2.0 | 0.00 | 0.00 | 0.00 | 58 | 1005.1 |
| 20260509034443 | 46 | 156 | 2.0 | 3.0 | 0.00 | 0.00 | 0.00 | 60 | 1005.1 |
| 20260509033939 | 46 | 113 | 2.0 | 2.0 | 0.00 | 0.00 | 0.00 | 56 | 1005.3 |
| 20260509033437 | 46 | 128 | 2.0 | 3.0 | 0.00 | 0.00 | 0.00 | 55 | 1005.3 |
| 20260509032933 | 46 | 109 | 2.0 | 3.0 | 0.00 | 0.00 | 0.00 | 56 | 1005.3 |
| 20260509032431 | 46 | 128 | 2.0 | 2.0 | 0.00 | 0.00 | 0.00 | 61 | 1005.3 |
| 20260509031928 | 46 | 121 | 2.0 | 3.0 | 0.00 | 0.00 | 0.00 | 54 | 1005.3 |
| 20260509031425 | 46 | 113 | 2.0 | 3.0 | 0.00 | 0.00 | 0.00 | 56 | 1005.5 |
| 20260509030923 | 46 | 123 | 2.0 | 3.0 | 0.00 | 0.00 | 0.00 | 59 | 1005.8 |
| 20260509030421 | 47 | 116 | 2.0 | 3.0 | 0.00 | 0.00 | 0.00 | 55 | 1005.6 |
| 20260509025918 | 47 | 127 | 2.0 | 3.0 | 0.00 | 0.00 | 0.00 | 56 | 1005.6 |
| 20260509025413 | 48 | 117 | 2.0 | 2.0 | 0.00 | 0.00 | 0.00 | 54 | 1005.7 |
| 20260509024908 | 48 | 153 | 3.0 | 3.0 | 0.00 | 0.00 | 0.00 | 54 | 1005.7 |
| 20260509024405 | 49 | 120 | 2.0 | 4.0 | 0.00 | 0.00 | 0.00 | 48 | 1005.8 |
| 20260509023902 | 49 | 101 | 2.0 | 3.0 | 0.00 | 0.00 | 0.00 | 48 | 1005.8 |
| 20260509023359 | 49 | 70 | 2.0 | 3.0 | 0.00 | 0.00 | 0.00 | 48 | 1005.8 |
| 20260509022855 | 49 | 63 | 3.0 | 3.0 | 0.00 | 0.00 | 0.00 | 47 | 1005.9 |
| 20260509022353 | 48 | 66 | 3.0 | 3.0 | 0.00 | 0.00 | 0.00 | 49 | 1005.9 |
| 20260509021850 | 48 | 244 | 2.0 | 2.0 | 0.00 | 0.00 | 0.00 | 52 | 1005.9 |
| 20260509021346 | 48 | 187 | 1.0 | 2.0 | 0.00 | 0.00 | 0.00 | 52 | 1005.9 |
| 20260509020844 | 49 | 113 | 2.0 | 4.0 | 0.00 | 0.00 | 0.00 | 50 | 1005.8 |
| 20260509020343 | 49 | 130 | 2.0 | 3.0 | 0.00 | 0.00 | 0.00 | 48 | 1005.9 |
| 20260509015839 | 50 | 186 | 2.0 | 4.0 | 0.00 | 0.00 | 0.00 | 48 | 1005.9 |
| 20260509015338 | 50 | 126 | 2.0 | 3.0 | 0.00 | 0.00 | 0.00 | 46 | 1005.8 |
| 20260509014834 | 50 | 173 | 2.0 | 6.0 | 0.00 | 0.00 | 0.00 | 50 | 1005.8 |
| 20260509014331 | 50 | 129 | 3.0 | 4.0 | 0.00 | 0.00 | 0.00 | 52 | 1005.9 |
| 20260509013828 | 50 | 96 | 4.0 | 5.0 | 0.00 | 0.00 | 0.00 | 47 | 1005.8 |
| 20260509013324 | 50 | 134 | 2.0 | 3.0 | 0.00 | 0.00 | 0.00 | 52 | 1006.0 |
| 20260509012820 | 50 | 118 | 2.0 | 2.0 | 0.00 | 0.00 | 0.00 | 48 | 1005.7 |
| 20260509012317 | 51 | 123 | 1.0 | 2.0 | 0.00 | 0.00 | 0.00 | 51 | 1005.7 |
| 20260509011815 | 51 | 122 | 2.0 | 3.0 | 0.00 | 0.00 | 0.00 | 44 | 1005.7 |
| 20260509011312 | 51 | 115 | 2.0 | 3.0 | 0.00 | 0.00 | 0.00 | 43 | 1005.6 |
| 20260509010810 | 51 | 120 | 2.0 | 2.0 | 0.00 | 0.00 | 0.00 | 42 | 1005.9 |
| 20260509010307 | 52 | 85 | 2.0 | 3.0 | 0.00 | 0.00 | 0.00 | 45 | 1005.7 |
| 20260509005804 | 52 | 92 | 2.0 | 2.0 | 0.00 | 0.00 | 0.00 | 42 | 1005.8 |
| 20260509005306 | 52 | 109 | 2.0 | 3.0 | 0.00 | 0.00 | 0.00 | 42 | 1005.7 |
| 20260509004801 | 53 | 113 | 3.0 | 3.0 | 0.00 | 0.00 | 0.00 | 41 | 1005.7 |
| 20260509004258 | 53 | 111 | 2.0 | 2.0 | 0.00 | 0.00 | 0.00 | 40 | 1005.7 |
| 20260509003756 | 53 | 105 | 2.0 | 2.0 | 0.00 | 0.00 | 0.00 | 39 | 1005.8 |
| 20260509003253 | 53 | 71 | 2.0 | 3.0 | 0.00 | 0.00 | 0.00 | 40 | 1005.8 |
| 20260509002750 | 54 | 167 | 0.0 | 3.0 | 0.00 | 0.00 | 0.00 | 38 | 1005.5 |
| 20260509002248 | 54 | 205 | 0.0 | 3.0 | 0.00 | 0.00 | 0.00 | 38 | 1005.9 |
| 20260509001746 | 54 | 68 | 1.0 | 3.0 | 0.00 | 0.00 | 0.00 | 39 | 1005.5 |
| 20260509001241 | 54 | 223 | 2.0 | 3.0 | 0.00 | 0.00 | 0.00 | 39 | 1005.8 |
| 20260509000739 | 54 | 7 | 1.0 | 2.0 | 0.00 | 0.00 | 0.00 | 37 | 1005.8 |
| 20260509000236 | 54 | 27 | 2.0 | 4.0 | 0.00 | 0.00 | 0.00 | 38 | 1005.9 |
| 20260508235733 | 55 | 38 | 5.0 | 6.0 | 0.00 | 0.00 | 0.00 | 38 | 1005.7 |
| 20260508235230 | 55 | 277 | 6.0 | 7.0 | 0.00 | 0.00 | 0.00 | 36 | 1005.9 |
| 20260508234727 | 55 | 22 | 2.0 | 5.0 | 0.00 | 0.00 | 0.00 | 37 | 1005.8 |
| 20260508234223 | 55 | 0 | 4.0 | 5.0 | 0.00 | 0.00 | 0.00 | 37 | 1005.8 |
| 20260508233717 | 56 | 340 | 3.0 | 6.0 | 0.00 | 0.00 | 0.00 | 36 | 1005.9 |
| 20260508233215 | 56 | 156 | 0.0 | 5.0 | 0.00 | 0.00 | 0.00 | 35 | 1005.9 |
| 20260508232712 | 56 | 227 | 5.0 | 12.0 | 0.00 | 0.00 | 0.00 | 35 | 1005.9 |
| 20260508232208 | 55 | 214 | 6.0 | 12.0 | 0.00 | 0.00 | 0.00 | 35 | 1005.9 |
| 20260508231706 | 55 | 289 | 1.0 | 6.0 | 0.00 | 0.00 | 0.00 | 36 | 1005.9 |
| 20260508231203 | 55 | 309 | 2.0 | 6.0 | 0.00 | 0.00 | 0.00 | 36 | 1006.0 |
| 20260508230700 | 56 | 235 | 1.0 | 4.0 | 0.00 | 0.00 | 0.00 | 36 | 1006.0 |
| 20260508230156 | 56 | 266 | 2.0 | 5.0 | 0.00 | 0.00 | 0.00 | 35 | 1005.9 |
| 20260508225654 | 56 | 191 | 3.0 | 9.0 | 0.00 | 0.00 | 0.00 | 35 | 1005.9 |
| 20260508225150 | 56 | 277 | 3.0 | 11.0 | 0.00 | 0.00 | 0.00 | 35 | 1005.9 |
| 20260508224648 | 56 | 262 | 4.0 | 9.0 | 0.00 | 0.00 | 0.00 | 34 | 1006.0 |
| 20260508224145 | 57 | 241 | 2.0 | 13.0 | 0.00 | 0.00 | 0.00 | 35 | 1006.0 |
| 20260508223643 | 57 | 221 | 6.0 | 7.0 | 0.00 | 0.00 | 0.00 | 35 | 1006.1 |
| 20260508223140 | 57 | 252 | 2.0 | 9.0 | 0.00 | 0.00 | 0.00 | 36 | 1005.8 |
| 20260508222637 | 56 | 290 | 2.0 | 9.0 | 0.00 | 0.00 | 0.00 | 36 | 1006.1 |
| 20260508222134 | 56 | 315 | 6.0 | 8.0 | 0.00 | 0.00 | 0.00 | 35 | 1006.0 |
| 20260508221630 | 57 | 260 | 9.0 | 11.0 | 0.00 | 0.00 | 0.00 | 36 | 1006.1 |
| 20260508221126 | 56 | 316 | 5.0 | 10.0 | 0.00 | 0.00 | 0.00 | 36 | 1006.1 |
| 20260508220623 | 55 | 244 | 6.0 | 11.0 | 0.00 | 0.00 | 0.00 | 36 | 1006.3 |
| 20260508220119 | 55 | 278 | 10.0 | 11.0 | 0.00 | 0.00 | 0.00 | 37 | 1006.4 |
| 20260508215616 | 55 | 287 | 9.0 | 15.0 | 0.00 | 0.00 | 0.00 | 36 | 1006.4 |
| 20260508215113 | 55 | 253 | 7.0 | 13.0 | 0.00 | 0.00 | 0.00 | 35 | 1006.4 |
| 20260508214610 | 56 | 271 | 6.0 | 10.0 | 0.00 | 0.00 | 0.00 | 36 | 1006.1 |
| 20260508214107 | 56 | 275 | 12.0 | 15.0 | 0.00 | 0.00 | 0.00 | 36 | 1006.1 |
| 20260508213604 | 56 | 276 | 9.0 | 12.0 | 0.00 | 0.00 | 0.00 | 36 | 1006.1 |
| 20260508213100 | 57 | 224 | 4.0 | 9.0 | 0.00 | 0.00 | 0.00 | 36 | 1006.3 |
| 20260508212556 | 57 | 258 | 8.0 | 15.0 | 0.00 | 0.00 | 0.00 | 35 | 1006.4 |
| 20260508212053 | 56 | 331 | 5.0 | 8.0 | 0.00 | 0.00 | 0.00 | 38 | 1006.3 |
| 20260508211548 | 56 | 268 | 8.0 | 19.0 | 0.00 | 0.00 | 0.00 | 37 | 1006.6 |
| 20260508211045 | 57 | 272 | 17.0 | 18.0 | 0.00 | 0.00 | 0.00 | 36 | 1006.4 |
| 20260508210541 | 56 | 301 | 6.0 | 11.0 | 0.00 | 0.00 | 0.00 | 36 | 1006.3 |
| 20260508210039 | 56 | 254 | 5.0 | 14.0 | 0.00 | 0.00 | 0.00 | 36 | 1006.5 |
| 20260508205536 | 56 | 347 | 6.0 | 15.0 | 0.00 | 0.00 | 0.00 | 36 | 1006.4 |
| 20260508205032 | 55 | 287 | 9.0 | 13.0 | 0.00 | 0.00 | 0.00 | 37 | 1006.6 |
| 20260508204529 | 56 | 289 | 9.0 | 10.0 | 0.00 | 0.00 | 0.00 | 36 | 1006.7 |
| 20260508204025 | 56 | 278 | 8.0 | 13.0 | 0.00 | 0.00 | 0.00 | 35 | 1006.6 |
| 20260508203521 | 56 | 181 | 3.0 | 15.0 | 0.00 | 0.00 | 0.00 | 36 | 1006.8 |
| 20260508203017 | 56 | 285 | 12.0 | 16.0 | 0.00 | 0.00 | 0.00 | 36 | 1006.7 |
| 20260508202514 | 55 | 285 | 12.0 | 22.0 | 0.00 | 0.00 | 0.00 | 37 | 1006.7 |
| 20260508202011 | 56 | 328 | 11.0 | 16.0 | 0.00 | 0.00 | 0.00 | 36 | 1006.8 |
| 20260508201508 | 56 | 299 | 3.0 | 11.0 | 0.00 | 0.00 | 0.00 | 35 | 1006.9 |
| 20260508201004 | 55 | 230 | 12.0 | 18.0 | 0.00 | 0.00 | 0.00 | 34 | 1006.9 |
| 20260508200501 | 56 | 248 | 11.0 | 23.0 | 0.00 | 0.00 | 0.00 | 33 | 1007.0 |
| 20260508195956 | 55 | 272 | 3.0 | 18.0 | 0.00 | 0.00 | 0.00 | 35 | 1007.0 |
| 20260508195454 | 56 | 284 | 10.0 | 26.0 | 0.00 | 0.00 | 0.00 | 33 | 1006.8 |
| 20260508194950 | 56 | 308 | 4.0 | 17.0 | 0.00 | 0.00 | 0.00 | 34 | 1007.1 |
| 20260508194447 | 56 | 292 | 18.0 | 21.0 | 0.00 | 0.00 | 0.00 | 33 | 1007.1 |
| 20260508193944 | 55 | 239 | 4.0 | 15.0 | 0.00 | 0.00 | 0.00 | 34 | 1007.0 |
| 20260508193441 | 56 | 243 | 16.0 | 23.0 | 0.00 | 0.00 | 0.00 | 32 | 1007.3 |
| 20260508192937 | 57 | 256 | 7.0 | 16.0 | 0.00 | 0.00 | 0.00 | 32 | 1007.2 |
| 20260508192434 | 55 | 245 | 13.0 | 26.0 | 0.00 | 0.00 | 0.00 | 32 | 1007.1 |
| 20260508191931 | 55 | 231 | 18.0 | 28.0 | 0.00 | 0.00 | 0.00 | 32 | 1007.3 |
| 20260508191428 | 56 | 228 | 10.0 | 21.0 | 0.00 | 0.00 | 0.00 | 32 | 1007.3 |
| 20260508190925 | 55 | 283 | 11.0 | 17.0 | 0.00 | 0.00 | 0.00 | 33 | 1007.3 |
| 20260508190422 | 56 | 285 | 9.0 | 16.0 | 0.00 | 0.00 | 0.00 | 32 | 1007.4 |
| 20260508185918 | 55 | 275 | 11.0 | 20.0 | 0.00 | 0.00 | 0.00 | 33 | 1007.3 |
| 20260508185416 | 55 | 262 | 13.0 | 17.0 | 0.00 | 0.00 | 0.00 | 34 | 1007.5 |
| 20260508184913 | 55 | 264 | 7.0 | 26.0 | 0.00 | 0.00 | 0.00 | 33 | 1007.4 |
| 20260508184410 | 54 | 277 | 10.0 | 12.0 | 0.00 | 0.00 | 0.00 | 35 | 1007.4 |
| 20260508183907 | 54 | 252 | 8.0 | 19.0 | 0.00 | 0.00 | 0.00 | 34 | 1007.6 |
| 20260508183403 | 54 | 299 | 10.0 | 12.0 | 0.00 | 0.00 | 0.00 | 35 | 1007.5 |
| 20260508182859 | 54 | 279 | 8.0 | 9.0 | 0.00 | 0.00 | 0.00 | 35 | 1007.7 |
| 20260508182357 | 54 | 260 | 3.0 | 11.0 | 0.00 | 0.00 | 0.00 | 35 | 1007.6 |
| 20260508181852 | 53 | 273 | 14.0 | 24.0 | 0.00 | 0.00 | 0.00 | 35 | 1007.7 |
| 20260508181349 | 53 | 257 | 14.0 | 19.0 | 0.00 | 0.00 | 0.00 | 35 | 1007.8 |
| 20260508180846 | 54 | 284 | 7.0 | 23.0 | 0.00 | 0.00 | 0.00 | 34 | 1007.9 |
| 20260508180342 | 54 | 289 | 11.0 | 18.0 | 0.00 | 0.00 | 0.00 | 33 | 1007.7 |
| 20260508175838 | 54 | 233 | 10.0 | 14.0 | 0.00 | 0.00 | 0.00 | 36 | 1007.9 |
| 20260508175335 | 53 | 278 | 10.0 | 15.0 | 0.00 | 0.00 | 0.00 | 35 | 1008.1 |
| 20260508174834 | 53 | 260 | 8.0 | 19.0 | 0.00 | 0.00 | 0.00 | 34 | 1008.3 |
| 20260508174331 | 53 | 214 | 4.0 | 14.0 | 0.00 | 0.00 | 0.00 | 36 | 1008.3 |
| 20260508173827 | 53 | 275 | 9.0 | 17.0 | 0.00 | 0.00 | 0.00 | 36 | 1008.4 |
| 20260508173324 | 53 | 281 | 9.0 | 14.0 | 0.00 | 0.00 | 0.00 | 36 | 1008.4 |
| 20260508172820 | 53 | 251 | 8.0 | 17.0 | 0.00 | 0.00 | 0.00 | 36 | 1008.4 |
| 20260508172317 | 53 | 240 | 6.0 | 13.0 | 0.00 | 0.00 | 0.00 | 36 | 1008.5 |
| 20260508171814 | 52 | 223 | 10.0 | 14.0 | 0.00 | 0.00 | 0.00 | 36 | 1008.4 |
| 20260508171310 | 52 | 230 | 8.0 | 16.0 | 0.00 | 0.00 | 0.00 | 37 | 1008.5 |
| 20260508170807 | 52 | 284 | 12.0 | 18.0 | 0.00 | 0.00 | 0.00 | 36 | 1008.6 |
| 20260508170305 | 52 | 281 | 7.0 | 14.0 | 0.00 | 0.00 | 0.00 | 38 | 1008.7 |
| 20260508165801 | 53 | 228 | 5.0 | 11.0 | 0.00 | 0.00 | 0.00 | 38 | 1008.5 |
| 20260508165258 | 51 | 248 | 8.0 | 25.0 | 0.00 | 0.00 | 0.00 | 38 | 1008.8 |
| 20260508164754 | 52 | 270 | 14.0 | 25.0 | 0.00 | 0.00 | 0.00 | 38 | 1008.8 |
| 20260508164251 | 51 | 274 | 17.0 | 20.0 | 0.00 | 0.00 | 0.00 | 37 | 1009.0 |
| 20260508163749 | 51 | 246 | 14.0 | 17.0 | 0.00 | 0.00 | 0.00 | 38 | 1008.9 |
| 20260508163247 | 52 | 249 | 14.0 | 20.0 | 0.00 | 0.00 | 0.00 | 38 | 1009.1 |
| 20260508162742 | 52 | 268 | 8.0 | 21.0 | 0.00 | 0.00 | 0.00 | 39 | 1009.2 |
| 20260508162240 | 51 | 220 | 19.0 | 22.0 | 0.00 | 0.00 | 0.00 | 39 | 1009.1 |
| 20260508161736 | 51 | 233 | 8.0 | 10.0 | 0.00 | 0.00 | 0.00 | 40 | 1009.0 |
| 20260508161234 | 52 | 221 | 8.0 | 15.0 | 0.00 | 0.00 | 0.00 | 39 | 1009.2 |
| 20260508160731 | 51 | 225 | 11.0 | 17.0 | 0.00 | 0.00 | 0.00 | 41 | 1009.3 |
| 20260508160230 | 50 | 227 | 10.0 | 17.0 | 0.00 | 0.00 | 0.00 | 44 | 1009.3 |
| 20260508155726 | 50 | 221 | 14.0 | 15.0 | 0.00 | 0.00 | 0.00 | 43 | 1009.2 |
| 20260508155223 | 50 | 272 | 13.0 | 23.0 | 0.00 | 0.00 | 0.00 | 43 | 1009.4 |
| 20260508154720 | 50 | 278 | 9.0 | 18.0 | 0.00 | 0.00 | 0.00 | 42 | 1009.6 |
| 20260508154217 | 50 | 223 | 6.0 | 18.0 | 0.00 | 0.00 | 0.00 | 42 | 1009.3 |
| 20260508153714 | 51 | 241 | 19.0 | 25.0 | 0.00 | 0.00 | 0.00 | 40 | 1009.5 |
| 20260508153211 | 50 | 221 | 11.0 | 12.0 | 0.00 | 0.00 | 0.00 | 45 | 1009.5 |
| 20260508152707 | 50 | 253 | 9.0 | 17.0 | 0.00 | 0.00 | 0.00 | 44 | 1009.5 |
| 20260508152203 | 49 | 271 | 3.0 | 10.0 | 0.00 | 0.00 | 0.00 | 47 | 1009.6 |
| 20260508151700 | 49 | 239 | 3.0 | 8.0 | 0.00 | 0.00 | 0.00 | 46 | 1009.5 |
| 20260508151156 | 48 | 208 | 6.0 | 16.0 | 0.00 | 0.00 | 0.00 | 47 | 1009.8 |
| 20260508150653 | 49 | 260 | 6.0 | 15.0 | 0.00 | 0.00 | 0.00 | 47 | 1009.5 |
| 20260508150150 | 48 | 287 | 10.0 | 14.0 | 0.00 | 0.00 | 0.00 | 47 | 1009.7 |
| 20260508145646 | 48 | 271 | 10.0 | 11.0 | 0.00 | 0.00 | 0.00 | 47 | 1009.7 |
| 20260508145142 | 49 | 279 | 13.0 | 15.0 | 0.00 | 0.00 | 0.00 | 46 | 1009.6 |
| 20260508144640 | 48 | 303 | 4.0 | 16.0 | 0.00 | 0.00 | 0.00 | 47 | 1009.8 |
| 20260508144137 | 49 | 296 | 12.0 | 16.0 | 0.00 | 0.00 | 0.00 | 46 | 1009.7 |
| 20260508143635 | 48 | 246 | 5.0 | 9.0 | 0.00 | 0.00 | 0.00 | 48 | 1009.7 |
| 20260508143131 | 47 | 281 | 7.0 | 14.0 | 0.00 | 0.00 | 0.00 | 49 | 1009.5 |
| 20260508142628 | 48 | 300 | 7.0 | 13.0 | 0.00 | 0.00 | 0.00 | 49 | 1010.0 |
| 20260508142125 | 48 | 225 | 11.0 | 11.0 | 0.00 | 0.00 | 0.00 | 51 | 1009.9 |
| 20260508141621 | 47 | 229 | 3.0 | 12.0 | 0.00 | 0.00 | 0.00 | 52 | 1009.8 |
| 20260508141119 | 47 | 226 | 4.0 | 14.0 | 0.00 | 0.00 | 0.00 | 52 | 1009.9 |
| 20260508140616 | 47 | 237 | 4.0 | 14.0 | 0.00 | 0.00 | 0.00 | 53 | 1009.9 |
| 20260508140113 | 46 | 248 | 11.0 | 23.0 | 0.00 | 0.00 | 0.00 | 52 | 1009.9 |
| 20260508135608 | 46 | 217 | 4.0 | 5.0 | 0.00 | 0.00 | 0.00 | 56 | 1010.1 |
| 20260508135104 | 46 | 236 | 12.0 | 13.0 | 0.00 | 0.00 | 0.00 | 54 | 1010.0 |
| 20260508134602 | 45 | 223 | 7.0 | 14.0 | 0.00 | 0.00 | 0.00 | 56 | 1010.0 |
| 20260508134058 | 45 | 206 | 9.0 | 16.0 | 0.00 | 0.00 | 0.00 | 59 | 1010.1 |
| 20260508133555 | 46 | 206 | 6.0 | 16.0 | 0.00 | 0.00 | 0.00 | 58 | 1010.3 |
| 20260508133053 | 45 | 159 | 3.0 | 6.0 | 0.00 | 0.00 | 0.00 | 61 | 1010.1 |
| 20260508132550 | 44 | 221 | 14.0 | 14.0 | 0.00 | 0.00 | 0.00 | 61 | 1010.0 |
| 20260508132046 | 44 | 175 | 2.0 | 6.0 | 0.00 | 0.00 | 0.00 | 63 | 1010.1 |
| 20260508131542 | 43 | 247 | 4.0 | 13.0 | 0.00 | 0.00 | 0.00 | 63 | 1010.3 |
| 20260508131039 | 43 | 237 | 6.0 | 15.0 | 0.00 | 0.00 | 0.00 | 64 | 1010.2 |
| 20260508130536 | 42 | 238 | 3.0 | 8.0 | 0.00 | 0.00 | 0.00 | 65 | 1010.2 |
| 20260508130032 | 42 | 203 | 6.0 | 17.0 | 0.00 | 0.00 | 0.00 | 66 | 1010.4 |
| 20260508125528 | 41 | 214 | 6.0 | 12.0 | 0.00 | 0.00 | 0.00 | 67 | 1010.3 |
| 20260508125026 | 41 | 223 | 5.0 | 9.0 | 0.00 | 0.00 | 0.00 | 69 | 1010.3 |
| 20260508124524 | 40 | 209 | 4.0 | 8.0 | 0.00 | 0.00 | 0.00 | 70 | 1010.4 |
| 20260508124021 | 39 | 211 | 6.0 | 9.0 | 0.00 | 0.00 | 0.00 | 70 | 1010.4 |
| 20260508123519 | 39 | 196 | 7.0 | 10.0 | 0.00 | 0.00 | 0.00 | 70 | 1010.4 |
| 20260508123016 | 39 | 212 | 4.0 | 9.0 | 0.00 | 0.00 | 0.00 | 71 | 1010.3 |
| 20260508122513 | 39 | 214 | 7.0 | 9.0 | 0.00 | 0.00 | 0.00 | 71 | 1010.6 |
| 20260508122009 | 39 | 201 | 2.0 | 7.0 | 0.00 | 0.00 | 0.00 | 70 | 1010.4 |
| 20260508121508 | 39 | 211 | 7.0 | 7.0 | 0.00 | 0.00 | 0.00 | 70 | 1010.3 |
| 20260508121005 | 39 | 203 | 9.0 | 10.0 | 0.00 | 0.00 | 0.00 | 70 | 1010.6 |
| 20260508120503 | 38 | 207 | 4.0 | 6.0 | 0.00 | 0.00 | 0.00 | 72 | 1010.4 |
| 20260508120000 | 38 | 203 | 4.0 | 4.0 | 0.00 | 0.00 | 0.00 | 73 | 1010.3 |
| 20260508115458 | 37 | 207 | 3.0 | 5.0 | 0.00 | 0.00 | 0.00 | 72 | 1010.3 |
| 20260508114954 | 37 | 192 | 2.0 | 5.0 | 0.00 | 0.00 | 0.00 | 72 | 1010.5 |
| 20260508114451 | 37 | 175 | 2.0 | 3.0 | 0.00 | 0.00 | 0.00 | 72 | 1010.4 |
| 20260508113948 | 37 | 190 | 3.0 | 6.0 | 0.00 | 0.00 | 0.00 | 73 | 1010.2 |
| 20260508113446 | 37 | 201 | 2.0 | 3.0 | 0.00 | 0.00 | 0.00 | 73 | 1010.4 |
| 20260508112943 | 36 | 164 | 2.0 | 4.0 | 0.00 | 0.00 | 0.00 | 74 | 1010.5 |